Regional Weather Roundup
Issued by NWS

Home | Current Version | Previous Version | Text Only | Print | Product List | Glossary On
Versions: 1 2 3 4 5 6 7 8 9 10 11 12 13 14 15 16 17 18 19 20 21 22 23 24 25 26 27 28 29 30 31 32 33 34 35 36 37 38 39 40 41 42 43 44 45 46 47 48 49 50
000
ASUS42 KKEY 070710
RWRKEY

FLORIDA REGIONAL WEATHER ROUNDUP FOR THE FLORIDA KEYS
NATIONAL WEATHER SERVICE KEY WEST FLORIDA
300 AM EDT TUE JUL 07 2015

...SOUTH FLORIDA AND THE KEYS...

CITY           SKY/WX    TMP DP  RH WIND       PRES   REMARKS
FORT MYERS     CLEAR     75  73  93 E3        30.09F
SW REGIONAL AP CLEAR     74  71  91 CALM      30.10F
NAPLES         NOT AVBL
MIAMI          PTCLDY    83  73  72 E8        30.09S
WEST KENDALL   PTCLDY    76  74  93 NW3       30.09F
HOMESTEAD      CLEAR     81  75  81 E2        30.08F
MARATHON       PTCLDY    84  76  76 E7        30.08F HX  93
BOCA CHICA NAS PTCLDY    84  74  71 E12       30.08F HX  91
KEY WEST INTL  PTCLDY    84  76  76 E15       30.08F HX  93

...INTERNATIONAL WEATHER...

CITY           SKY/WX    TMP DP  RH WIND       PRES   REMARKS
NASSAU BAHAMAS PTCLDY    82  73  74 SE5       30.13S
CANCUN MEXICO  PTCLDY    81  79  94 NE7       30.05F
COZUMEL MEXICO PTCLDY    73  73 100 CALM      30.05F

ADJACENT COASTAL WATERS...

STATION/POSITION TIME  SKY/WX   TEMP    WIND        PRES    WAVE
                                AIR SEA DIR/SP/G            HT/PER
                 (UTC)          (F)     (DEG/KT/KT) (MB)    (FT/S)
PULASKI SHOAL LI 0600            85     110/ 13/ 16 1018.5F
SAND KEY         0650            84     100/ 14/ 16 1018.4F
SOMBRERO KEY     0600            84     100/ 12/ 13 1019.6F
LONG KEY         0600            84 87  120/ 10/ 11 1019.8F
MOLASSES REEF    0600            83 85   80/ 11/ 12 1018.9F
FOWEY ROCKS      NOT AVBL

$$


USA.gov is the U.S. government's official web portal to all federal, state and local government web resources and services.